Eveleth, MN

4:57 PM CDT on May 26, 2017 (GMT -0500)
Eveleth-Virginia Municipal

Weather History for KEVM - February, 2014

Change the Weather History Date:

Wednesday, February 26, 2014

  Actual Average Record
Temperature  
Mean Temperature -3 °F -  
Max Temperature 8 °F 26 °F 42 °F (1999)
Min Temperature -14 °F 7 °F -23 °F (2011)
Degree Days  
Heating Degree Days 68    
Moisture  
Dew Point -13 °F    
Average Humidity 66    
Maximum Humidity 79    
Minimum Humidity 43    
Precipitation  
Precipitation 0.00 in - - ()
Sea Level Pressure  
Sea Level Pressure 29.69 in    
Wind  
Wind Speed 11 mph (West)    
Max Wind Speed 23 mph    
Max Gust Speed 36 mph    
Visibility 6 miles    
Events Snow    
Averages and records for this station are not official NWS values.
T = Trace of Precipitation, MM = Missing Value Source: NWS Daily Summary

Daily Weather History Graph

Daily Weather History Graph

Search for Another Location

Airport or City:

Trip Planner

Search our weather history database for the weather conditions in past years. The results will help you decide how hot, cold, wet, or windy it might be!

Date:

Astronomy

Feb. 26, 2014 Rise Set
Actual Time 6:55 AM CST 5:50 PM CST
Civil Twilight 6:24 AM CST 6:21 PM CST
Nautical Twilight 5:49 AM CST 6:57 PM CST
Astronomical Twilight 5:13 AM CST 7:32 PM CST
Moon 4:51 AM CST 2:57 PM CST
Length of Visible Light 11h 56m
Length of Day
10h 54m
Waning Crescent, 10% of the Moon is Illuminated
Feb 26
Waning Crescent
Mar 1
New
Mar 8
First Quarter
Mar 16
Full
Mar 23
Last Quarter

Hourly Weather History & Observations

Time (CST) Temp. Windchill Dew Point Humidity Pressure Visibility Wind Dir Wind Speed Gust Speed Precip Events Conditions
12:06 AM -11.2 °F -26.4 °F -18.4 °F 70% 30.11 in 10.0 mi West 6.9 mph - N/A   Clear
12:26 AM -13.0 °F -28.6 °F -20.2 °F 70% 30.10 in 10.0 mi West 6.9 mph - N/A   Clear
12:47 AM -13.0 °F -30.0 °F -20.2 °F 70% 30.10 in 10.0 mi WSW 8.1 mph - N/A   Clear
1:06 AM -13.0 °F -27.0 °F -22.0 °F 64% 30.09 in 10.0 mi SW 5.8 mph - N/A   Clear
1:27 AM -14.8 °F -30.8 °F -22.0 °F 70% 30.08 in 10.0 mi WSW 6.9 mph - N/A   Clear
1:46 AM -14.8 °F -29.1 °F -22.0 °F 70% 30.07 in 10.0 mi WSW 5.8 mph - N/A   Clear
2:06 AM -14.8 °F -27.2 °F -22.0 °F 70% 30.05 in 10.0 mi SW 4.6 mph - N/A   Scattered Clouds
2:27 AM -14.8 °F -30.8 °F -22.0 °F 70% 30.03 in 10.0 mi WSW 6.9 mph - N/A   Overcast
2:46 AM -13.0 °F -27.0 °F -20.2 °F 70% 30.01 in 10.0 mi SW 5.8 mph - N/A   Overcast
3:06 AM -13.0 °F -30.0 °F -18.4 °F 77% 29.99 in 10.0 mi WSW 8.1 mph - N/A   Overcast
3:27 AM -13.0 °F -31.3 °F -18.4 °F 77% 29.95 in 10.0 mi SW 9.2 mph - N/A   Overcast
3:46 AM -11.2 °F -27.8 °F -18.4 °F 70% 29.94 in 10.0 mi SW 8.1 mph - N/A   Overcast
4:06 AM -11.2 °F -27.8 °F -18.4 °F 70% 29.92 in 10.0 mi SW 8.1 mph - N/A   Overcast
4:27 AM -13.0 °F -28.6 °F -18.4 °F 77% 29.90 in 10.0 mi SW 6.9 mph - N/A   Overcast
4:46 AM -13.0 °F -28.6 °F -18.4 °F 77% 29.88 in 10.0 mi SW 6.9 mph - N/A   Overcast
5:06 AM -11.2 °F -26.4 °F -18.4 °F 70% 29.87 in 10.0 mi SW 6.9 mph - N/A   Overcast
5:27 AM -11.2 °F -29.0 °F -18.4 °F 70% 29.84 in 10.0 mi SW 9.2 mph - N/A   Overcast
5:46 AM -9.4 °F -26.8 °F -16.6 °F 71% 29.82 in 10.0 mi SW 9.2 mph - N/A   Overcast
6:06 AM -9.4 °F -26.8 °F -16.6 °F 71% 29.80 in 10.0 mi SW 9.2 mph - N/A   Overcast
6:27 AM -9.4 °F -29.8 °F -18.4 °F 65% 29.77 in 10.0 mi SW 12.7 mph - N/A   Overcast
6:46 AM -9.4 °F -27.9 °F -18.4 °F 65% 29.75 in 10.0 mi SW 10.4 mph - N/A   Scattered Clouds
7:06 AM -9.4 °F -25.6 °F -18.4 °F 65% 29.73 in 10.0 mi SW 8.1 mph - N/A   Scattered Clouds
7:27 AM -9.4 °F -26.8 °F -16.6 °F 71% 29.72 in 10.0 mi SW 9.2 mph - N/A   Overcast
7:46 AM -7.6 °F -26.6 °F -14.8 °F 71% 29.70 in 10.0 mi SW 11.5 mph - N/A   Overcast
8:06 AM -7.6 °F -26.6 °F -16.6 °F 65% 29.67 in 10.0 mi SW 11.5 mph 17.3 mph N/A   Scattered Clouds
8:27 AM -5.8 °F -26.8 °F -14.8 °F 65% 29.62 in 10.0 mi SW 15.0 mph - N/A   Scattered Clouds
8:46 AM -5.8 °F -26.8 °F -14.8 °F 65% 29.60 in 10.0 mi SW 15.0 mph 23.0 mph N/A   Scattered Clouds
9:06 AM -2.2 °F -23.5 °F -11.2 °F 66% 29.55 in 10.0 mi SW 17.3 mph 26.5 mph N/A   Mostly Cloudy
9:27 AM -0.4 °F -21.7 °F -9.4 °F 66% 29.54 in 10.0 mi SW 18.4 mph 24.2 mph N/A   Overcast
9:46 AM -0.4 °F -18.4 °F -9.4 °F 66% 29.56 in 10.0 mi WSW 12.7 mph 21.9 mph N/A   Overcast
10:06 AM -0.4 °F -17.6 °F -9.4 °F 66% 29.55 in 3.0 mi WSW 11.5 mph 19.6 mph N/A   Haze
10:27 AM 3.2 °F -13.1 °F -5.8 °F 66% 29.53 in 1.8 mi WSW 11.5 mph 17.3 mph N/A Snow Light Snow
10:46 AM 3.2 °F -17.1 °F -5.8 °F 66% 29.52 in 2.5 mi West 18.4 mph 25.3 mph N/A Snow Light Snow
11:07 AM 5.0 °F -12.3 °F -4.0 °F 66% 29.50 in 3.0 mi West 13.8 mph 19.6 mph N/A   Haze
11:26 AM 5.0 °F -14.7 °F -4.0 °F 66% 29.49 in 2.5 mi West 18.4 mph 23.0 mph N/A   Haze
11:46 AM 5.0 °F -15.2 °F -4.0 °F 66% 29.49 in 1.8 mi West 19.6 mph 27.6 mph N/A   Haze
12:07 PM 5.0 °F -14.7 °F -4.0 °F 66% 29.47 in 2.5 mi West 18.4 mph 26.5 mph N/A   Haze
12:26 PM 6.8 °F -11.8 °F -2.2 °F 67% 29.47 in 2.5 mi West 17.3 mph 25.3 mph N/A   Haze
12:46 PM 8.6 °F -11.4 °F -0.4 °F 67% 29.45 in 2.5 mi West 21.9 mph 27.6 mph N/A   Haze
1:07 PM 8.6 °F -10.0 °F -0.4 °F 67% 29.45 in 3.0 mi West 18.4 mph 26.5 mph N/A   Haze
1:09 PM 8.6 °F -8.9 °F -0.4 °F 67% 29.45 in 3.0 mi West 16.1 mph 24.2 mph N/A   Haze
1:45 PM 8.6 °F -8.9 °F 3.2 °F 79% 29.43 in 1.5 mi West 16.1 mph 20.7 mph N/A   Overcast
2:05 PM 8.6 °F -10.5 °F 1.4 °F 73% 29.42 in 1.2 mi WNW 19.6 mph 25.3 mph N/A   Overcast
2:25 PM 8.6 °F -7.0 °F -0.4 °F 67% 29.43 in 1.8 mi NW 12.7 mph 24.2 mph N/A   Overcast
2:45 PM 8.6 °F -7.0 °F 1.4 °F 73% 29.44 in 2.0 mi NW 12.7 mph 24.2 mph N/A   Overcast
3:05 PM 8.6 °F -8.3 °F -0.4 °F 67% 29.44 in 3.0 mi NW 15.0 mph 25.3 mph N/A   Overcast
3:25 PM 8.6 °F -10.5 °F -0.4 °F 67% 29.45 in 1.0 mi NW 19.6 mph 26.5 mph N/A   Overcast
3:45 PM 6.8 °F -12.4 °F -2.2 °F 67% 29.46 in 1.0 mi NW 18.4 mph 28.8 mph N/A   Overcast
4:05 PM 6.8 °F -12.9 °F -2.2 °F 67% 29.47 in 2.5 mi NNW 19.6 mph 23.0 mph N/A   Overcast
4:25 PM 5.0 °F -14.2 °F -2.2 °F 72% 29.48 in 1.0 mi NW 17.3 mph 26.5 mph N/A   Overcast
4:45 PM 5.0 °F -14.2 °F -4.0 °F 66% 29.49 in 4.0 mi NW 17.3 mph 24.2 mph N/A   Overcast
5:05 PM 5.0 °F -16.7 °F -9.4 °F 52% 29.51 in 1.2 mi NW 23.0 mph 35.7 mph N/A   Overcast
5:25 PM 3.2 °F -18.1 °F -14.8 °F 43% 29.52 in 2.0 mi NW 20.7 mph 35.7 mph N/A   Mostly Cloudy
5:45 PM 1.4 °F -17.6 °F -14.8 °F 47% 29.55 in 3.0 mi NNW 15.0 mph 29.9 mph N/A   Scattered Clouds
6:05 PM 1.4 °F -19.4 °F -13.0 °F 51% 29.57 in 5.0 mi NW 18.4 mph 28.8 mph N/A   Mostly Cloudy
6:25 PM -0.4 °F -22.8 °F -14.8 °F 51% 29.58 in 7.0 mi NW 20.7 mph 27.6 mph N/A   Scattered Clouds
6:45 PM -0.4 °F -22.8 °F -14.8 °F 51% 29.60 in 5.0 mi NW 20.7 mph 25.3 mph N/A   Clear
7:05 PM -0.4 °F -22.8 °F -14.8 °F 51% 29.61 in 5.0 mi NW 20.7 mph 29.9 mph N/A   Mostly Cloudy
7:25 PM -2.2 °F -25.2 °F -14.8 °F 55% 29.62 in 10.0 mi NW 20.7 mph 25.3 mph N/A   Overcast
7:45 PM -4.0 °F -25.8 °F -14.8 °F 60% 29.64 in 7.0 mi NW 17.3 mph 26.5 mph N/A   Overcast
8:05 PM -4.0 °F -25.8 °F -14.8 °F 60% 29.66 in 7.0 mi NW 17.3 mph 27.6 mph N/A   Overcast
8:25 PM -4.0 °F -26.4 °F -16.6 °F 55% 29.67 in 10.0 mi NNW 18.4 mph 27.6 mph N/A   Scattered Clouds
8:45 PM -5.8 °F -26.0 °F -16.6 °F 60% 29.69 in 7.0 mi NW 13.8 mph 24.2 mph N/A   Scattered Clouds
9:05 PM -5.8 °F -26.8 °F -16.6 °F 60% 29.71 in 10.0 mi NW 15.0 mph 28.8 mph N/A   Overcast
9:25 PM -7.6 °F -26.6 °F -18.4 °F 59% 29.72 in 10.0 mi NW 11.5 mph 28.8 mph N/A   Overcast
9:45 PM -7.6 °F -29.8 °F -16.6 °F 65% 29.73 in 4.0 mi NW 16.1 mph 23.0 mph N/A   Overcast
10:05 PM -7.6 °F -29.1 °F -16.6 °F 65% 29.75 in 7.0 mi NW 15.0 mph 20.7 mph N/A   Overcast
10:25 PM -7.6 °F -29.1 °F -16.6 °F 65% 29.76 in 2.5 mi NW 15.0 mph 23.0 mph N/A   Overcast
10:45 PM -7.6 °F -29.8 °F -16.6 °F 65% 29.78 in 3.0 mi NW 16.1 mph 27.6 mph N/A   Overcast
11:05 PM -7.6 °F -27.5 °F -16.6 °F 65% 29.79 in 3.0 mi NW 12.7 mph 24.2 mph N/A   Overcast
11:25 PM -7.6 °F -28.3 °F -16.6 °F 65% 29.80 in 4.0 mi NNW 13.8 mph 19.6 mph N/A   Overcast
11:45 PM -11.2 °F -32.1 °F -18.4 °F 70% 29.81 in 4.0 mi NW 12.7 mph 23.0 mph N/A   Overcast